Weather History for Ardmore Downtown, OK

Change the Weather History Date:

Thursday, January 16, 2014

  Actual Average (KADM) Record (KADM)
Temperature  
Mean Temperature 47 °F -  
Max Temperature 62 °F 51 °F 73 °F (2012)
Min Temperature 32 °F 32 °F 17 °F (2009)
Degree Days  
Heating Degree Days 18    
Moisture  
Dew Point 19 °F    
Average Humidity 39    
Maximum Humidity 81    
Minimum Humidity 11    
Precipitation  
Precipitation 0.00 in - - ()
Sea Level Pressure  
Sea Level Pressure 30.07 in    
Wind  
Wind Speed 3 mph (NNW)    
Max Wind Speed 13 mph    
Max Gust Speed 25 mph    
Visibility 10 miles    
Events      
Averages and records for this station are not official NWS values.
T = Trace of Precipitation, MM = Missing Value Source: NWS Daily Summary

Daily Weather History Graph

Daily Weather History Graph

Search for Another Location

Airport:

Trip Planner

Search our weather history database for the weather conditions in past years. The results will help you decide how hot, cold, wet, or windy it might be!

Date:

Astronomy

Jan. 16, 2014 Rise Set
Actual Time 7:33 AM CST 5:43 PM CST
Civil Twilight 7:06 AM CST 6:10 PM CST
Nautical Twilight 6:35 AM CST 6:40 PM CST
Astronomical Twilight 6:05 AM CST 7:11 PM CST
Moon 6:31 PM CST (1/16) 7:31 AM CST (1/16)
Length of Visible Light 11h 03m
Length of Day
10h 09m
Full, 100% of the Moon is Illuminated
Jan 16
Full
Jan 23
Last Quarter
Jan 30
New
Feb 6
First Quarter
Feb 14
Full

Hourly Weather History & Observations

Time (CST) Temp. Windchill Dew Point Humidity Pressure Visibility Wind Dir Wind Speed Gust Speed Precip Events Conditions
12:15 AM 37.4 °F - 28.4 °F 70% 30.03 in 10.0 mi Calm Calm - N/A   Clear
12:35 AM 37.4 °F 34.9 °F 26.6 °F 65% 30.02 in 10.0 mi South 3.5 mph - N/A   Clear
12:55 AM 39.2 °F 35.9 °F 26.6 °F 61% 30.01 in 10.0 mi SSW 4.6 mph - N/A   Clear
1:15 AM 41.0 °F 39.0 °F 26.6 °F 57% 30.01 in 10.0 mi SSW 3.5 mph - N/A   Clear
1:35 AM 39.2 °F - 26.6 °F 61% 29.99 in 10.0 mi Calm Calm - N/A   Clear
1:55 AM 37.4 °F - 26.6 °F 65% 30.00 in 10.0 mi Calm Calm - N/A   Clear
2:15 AM 37.4 °F - 26.6 °F 65% 30.00 in 10.0 mi Calm Calm - N/A   Clear
2:35 AM 37.4 °F - 26.6 °F 65% 29.99 in 10.0 mi Calm Calm - N/A   Clear
2:55 AM 35.6 °F - 26.6 °F 70% 29.99 in 10.0 mi Calm Calm - N/A   Clear
3:15 AM 35.6 °F - 26.6 °F 70% 29.99 in 10.0 mi Calm Calm - N/A   Clear
3:35 AM 35.6 °F - 26.6 °F 70% 29.98 in 10.0 mi Calm Calm - N/A   Clear
3:55 AM 35.6 °F - 26.6 °F 70% 29.98 in 10.0 mi Calm Calm - N/A   Clear
4:15 AM 37.4 °F - 26.6 °F 65% 29.98 in 10.0 mi Calm Calm - N/A   Clear
4:35 AM 33.8 °F - 28.4 °F 81% 29.98 in 10.0 mi Calm Calm - N/A   Clear
4:55 AM 33.8 °F - 28.4 °F 81% 29.98 in 10.0 mi Calm Calm - N/A   Clear
5:15 AM 32.0 °F - 26.6 °F 80% 29.98 in 10.0 mi Calm Calm - N/A   Clear
5:35 AM 32.0 °F - 26.6 °F 80% 29.99 in 10.0 mi Calm Calm - N/A   Clear
5:55 AM 33.8 °F - 26.6 °F 75% 29.99 in 10.0 mi Calm Calm - N/A   Clear
6:15 AM 35.6 °F - 26.6 °F 70% 29.99 in 10.0 mi Calm Calm - N/A   Clear
6:35 AM 37.4 °F 34.9 °F 26.6 °F 65% 30.00 in 10.0 mi WNW 3.5 mph - N/A   Clear
6:55 AM 39.2 °F 35.9 °F 26.6 °F 61% 30.00 in 10.0 mi West 4.6 mph - N/A   Clear
7:15 AM 39.2 °F 35.9 °F 26.6 °F 61% 30.00 in 10.0 mi West 4.6 mph - N/A   Clear
7:35 AM 37.4 °F - 26.6 °F 65% 30.00 in 10.0 mi Calm Calm - N/A   Clear
7:55 AM 39.2 °F 37.0 °F 26.6 °F 61% 30.02 in 10.0 mi WNW 3.5 mph - N/A   Clear
8:15 AM 41.0 °F 39.0 °F 26.6 °F 57% 30.03 in 10.0 mi WNW 3.5 mph - N/A   Clear
8:35 AM 41.0 °F 38.0 °F 26.6 °F 57% 30.04 in 10.0 mi WNW 4.6 mph - N/A   Clear
8:55 AM 42.8 °F 39.3 °F 26.6 °F 53% 30.05 in 10.0 mi NW 5.8 mph - N/A   Clear
9:15 AM 44.6 °F 43.1 °F 26.6 °F 49% 30.06 in 10.0 mi NNW 3.5 mph - N/A   Clear
9:35 AM 46.4 °F 45.2 °F 28.4 °F 50% 30.07 in 10.0 mi North 3.5 mph - N/A   Clear
9:55 AM 50.0 °F - 28.4 °F 43% 30.08 in 10.0 mi NNW 5.8 mph - N/A   Clear
10:15 AM 51.8 °F - 28.4 °F 41% 30.09 in 10.0 mi North 6.9 mph - N/A   Clear
10:35 AM 53.6 °F - 30.2 °F 41% 30.11 in 10.0 mi North 8.1 mph - N/A   Clear
10:55 AM 55.4 °F - 28.4 °F 36% 30.11 in 10.0 mi North 6.9 mph - N/A   Clear
11:15 AM 57.2 °F - 28.4 °F 33% 30.11 in 10.0 mi North 8.1 mph - N/A   Clear
11:35 AM 57.2 °F - 28.4 °F 33% 30.11 in 10.0 mi North 8.1 mph - N/A   Clear
11:55 AM 59.0 °F - 28.4 °F 31% 30.11 in 10.0 mi NNE 11.5 mph 23.0 mph N/A   Clear
12:15 PM 59.0 °F - 28.4 °F 31% 30.10 in 10.0 mi North 9.2 mph 17.3 mph N/A   Clear
12:35 PM 59.0 °F - 28.4 °F 31% 30.10 in 10.0 mi North 8.1 mph 17.3 mph N/A   Clear
12:55 PM 60.8 °F - 28.4 °F 29% 30.09 in 10.0 mi North 8.1 mph 20.7 mph N/A   Clear
1:15 PM 60.8 °F - 24.8 °F 25% 30.09 in 10.0 mi North 8.1 mph 21.9 mph N/A   Clear
1:35 PM 62.6 °F - 23.0 °F 22% 30.07 in 10.0 mi North 9.2 mph - N/A   Clear
1:55 PM 62.6 °F - 17.6 °F 18% 30.07 in 10.0 mi NNW 10.4 mph 18.4 mph N/A   Clear
2:35 PM 62.6 °F - 15.8 °F 16% 30.07 in 10.0 mi NNW 9.2 mph 20.7 mph N/A   Clear
2:55 PM 62.6 °F - 8.6 °F 12% 30.07 in 10.0 mi NNW 10.4 mph 24.2 mph N/A   Clear
3:15 PM 62.6 °F - 10.4 °F 13% 30.07 in 10.0 mi North 9.2 mph - N/A   Clear
3:35 PM 62.6 °F - 12.2 °F 14% 30.07 in 10.0 mi North 9.2 mph 17.3 mph N/A   Clear
3:55 PM 62.6 °F - 8.6 °F 12% 30.07 in 10.0 mi North 9.2 mph 17.3 mph N/A   Clear
4:15 PM 60.8 °F - 8.6 °F 13% 30.08 in 10.0 mi NNW 10.4 mph 25.3 mph N/A   Clear
4:35 PM 60.8 °F - 5.0 °F 11% 30.08 in 10.0 mi North 12.7 mph 21.9 mph N/A   Clear
4:55 PM 59.0 °F - 8.6 °F 14% 30.09 in 10.0 mi North 6.9 mph - N/A   Clear
5:15 PM 59.0 °F - 8.6 °F 14% 30.08 in 10.0 mi North 9.2 mph 17.3 mph N/A   Clear
5:35 PM 57.2 °F - 3.2 °F 11% 30.09 in 10.0 mi North 5.8 mph - N/A   Clear
5:55 PM 55.4 °F - 5.0 °F 13% 30.10 in 10.0 mi NNW 4.6 mph - N/A   Clear
6:15 PM 53.6 °F - 5.0 °F 14% 30.11 in 10.0 mi Calm Calm - N/A   Clear
6:35 PM 51.8 °F - 5.0 °F 15% 30.11 in 10.0 mi NNW 3.5 mph - N/A   Clear
6:55 PM 51.8 °F - 6.8 °F 16% 30.12 in 10.0 mi Calm Calm - N/A   Clear
7:15 PM 50.0 °F - 8.6 °F 19% 30.13 in 10.0 mi NW 3.5 mph - N/A   Clear
7:35 PM 50.0 °F - 6.8 °F 17% 30.13 in 10.0 mi Calm Calm - N/A   Clear
7:55 PM 50.0 °F - 8.6 °F 19% 30.13 in 10.0 mi NNW 3.5 mph - N/A   Clear
8:15 PM 50.0 °F - 6.8 °F 17% 30.14 in 10.0 mi NNW 3.5 mph - N/A   Clear
8:35 PM 50.0 °F - 8.6 °F 19% 30.15 in 10.0 mi Calm Calm - N/A   Clear
8:55 PM 50.0 °F - 8.6 °F 19% 30.15 in 10.0 mi Calm Calm - N/A   Clear
9:15 PM 50.0 °F - 8.6 °F 19% 30.17 in 10.0 mi NW 3.5 mph - N/A   Clear
9:35 PM 46.4 °F - 8.6 °F 22% 30.17 in 10.0 mi Calm Calm - N/A   Clear
9:55 PM 46.4 °F - 8.6 °F 22% 30.17 in 10.0 mi Calm Calm - N/A   Clear
10:15 PM 48.2 °F - 5.0 °F 17% 30.18 in 10.0 mi NW 3.5 mph - N/A   Clear
10:35 PM 48.2 °F - 5.0 °F 17% 30.19 in 10.0 mi Calm Calm - N/A   Clear
10:55 PM 48.2 °F - 5.0 °F 17% 30.19 in 10.0 mi WNW 3.5 mph - N/A   Clear
11:15 PM 48.2 °F - 5.0 °F 17% 30.19 in 10.0 mi NW 3.5 mph - N/A   Clear
11:35 PM 48.2 °F - 5.0 °F 17% 30.19 in 10.0 mi NNW 3.5 mph - N/A   Clear
11:55 PM 46.4 °F - 5.0 °F 18% 30.20 in 10.0 mi Calm Calm - N/A   Clear